�������l�o���
Date,Time,MP-1(��Sv/h),MP-2(��Sv/h),MP-3(��Sv/h),MP-4(��Sv/h),MP-5(��Sv/h),MP-6(��Sv/h),MP-7(��Sv/h),MP-8(��Sv/h),����,����(m/s),���J
2023/03/28,00:00,0.547,0.796,0.485,0.994,0.696,0.316,0.570,0.543,�k�k��,6.2,��
2023/03/28,00:10,0.548,0.797,0.486,0.995,0.696,0.318,0.569,0.542,�k�k��,4.3,��
2023/03/28,00:20,0.547,0.796,0.485,0.994,0.695,0.317,0.568,0.542,�k�k��,4.4,��
2023/03/28,00:30,0.546,0.797,0.485,0.995,0.697,0.316,0.570,0.542,�k�k��,4.6,��
2023/03/28,00:40,0.545,0.797,0.486,0.995,0.696,0.318,0.571,0.541,�k�k��,4.8,��
2023/03/28,00:50,0.547,0.797,0.486,0.997,0.694,0.317,0.569,0.541,�k�k��,4.1,��
2023/03/28,01:00,0.548,0.797,0.484,0.993,0.696,0.317,0.571,0.541,�k�k��,4.3,��
2023/03/28,01:10,0.547,0.798,0.485,0.995,0.695,0.316,0.569,0.542,�k�k��,5.3,�L
2023/03/28,01:20,0.548,0.799,0.486,0.995,0.697,0.318,0.568,0.541,�k�k��,6.0,�L
2023/03/28,01:30,0.548,0.795,0.485,0.995,0.694,0.317,0.569,0.542,�k�k��,5.2,�L
2023/03/28,01:40,0.547,0.798,0.485,0.993,0.696,0.317,0.570,0.541,�k�k��,5.4,�L
2023/03/28,01:50,0.547,0.797,0.486,0.996,0.696,0.319,0.569,0.541,�k�k��,5.1,�L
2023/03/28,02:00,0.547,0.797,0.485,0.995,0.696,0.318,0.570,0.541,�k�k��,5.7,�L
2023/03/28,02:10,0.546,0.797,0.485,0.995,0.696,0.317,0.571,0.541,�k�k��,5.2,�L
2023/03/28,02:20,0.548,0.795,0.487,0.996,0.696,0.317,0.570,0.542,�k�k��,5.3,�L
2023/03/28,02:30,0.548,0.798,0.486,0.997,0.694,0.319,0.571,0.542,�k�k��,5.6,�L
2023/03/28,02:40,0.547,0.797,0.487,0.993,0.697,0.317,0.570,0.541,�k�k��,5.7,�L
2023/03/28,02:50,0.548,0.799,0.486,0.995,0.696,0.318,0.571,0.541,�k�k��,5.6,�L
2023/03/28,03:00,0.547,0.796,0.487,0.996,0.696,0.317,0.570,0.542,�k�k��,5.9,�L
2023/03/28,03:10,0.548,0.795,0.486,0.994,0.695,0.318,0.570,0.542,�k��,6.2,��
2023/03/28,03:20,0.547,0.795,0.484,0.995,0.695,0.317,0.571,0.540,�k��,5.6,��
2023/03/28,03:30,0.547,0.796,0.485,0.996,0.696,0.318,0.571,0.541,�k��,5.9,��
2023/03/28,03:40,0.547,0.798,0.485,0.994,0.694,0.317,0.570,0.541,�k��,6.0,��
2023/03/28,03:50,0.546,0.798,0.486,0.996,0.694,0.316,0.569,0.542,�k�k��,6.3,�L
2023/03/28,04:00,0.546,0.797,0.484,0.995,0.695,0.317,0.571,0.541,�k��,6.7,��
2023/03/28,04:10,0.546,0.796,0.484,0.994,0.695,0.315,0.569,0.541,�k��,6.8,��
2023/03/28,04:20,0.544,0.797,0.485,0.995,0.696,0.316,0.571,0.542,�k��,7.2,��
2023/03/28,04:30,0.548,0.795,0.484,0.995,0.695,0.317,0.568,0.542,�k��,6.9,��
2023/03/28,04:40,0.546,0.797,0.485,0.995,0.694,0.317,0.570,0.542,�k��,7.4,�L
2023/03/28,04:50,0.546,0.796,0.483,0.996,0.696,0.316,0.570,0.543,�k�k��,6.7,��
2023/03/28,05:00,0.545,0.797,0.484,0.995,0.694,0.317,0.570,0.541,�k�k��,7.0,��
2023/03/28,05:10,0.546,0.798,0.484,0.995,0.697,0.316,0.569,0.542,�k�k��,6.7,��
2023/03/28,05:20,0.547,0.796,0.485,0.995,0.695,0.317,0.570,0.541,�k��,7.2,��
2023/03/28,05:30,0.546,0.797,0.484,0.995,0.696,0.316,0.570,0.542,�k�k��,6.9,��
2023/03/28,05:40,0.546,0.798,0.485,0.996,0.695,0.316,0.570,0.541,�k�k��,7.2,��
2023/03/28,05:50,0.547,0.797,0.484,0.994,0.695,0.316,0.569,0.542,�k�k��,6.7,��
2023/03/28,06:00,0.546,0.798,0.485,0.997,0.694,0.317,0.569,0.542,�k��,7.5,��
2023/03/28,06:10,0.545,0.796,0.485,0.994,0.695,0.316,0.571,0.542,�k�k��,6.9,��
2023/03/28,06:20,0.546,0.796,0.486,0.995,0.697,0.317,0.572,0.542,�k��,6.1,��
2023/03/28,06:30,0.545,0.794,0.485,0.996,0.697,0.317,0.569,0.541,�k�k��,7.5,��
2023/03/28,06:40,0.545,0.796,0.485,0.996,0.695,0.315,0.571,0.541,�k�k��,7.1,��
2023/03/28,06:50,0.546,0.796,0.485,0.993,0.696,0.317,0.570,0.543,�k�k��,7.0,��
2023/03/28,07:00,0.546,0.795,0.484,0.996,0.695,0.317,0.570,0.543,�k�k��,7.0,��
2023/03/28,07:10,0.545,0.800,0.485,0.995,0.696,0.316,0.571,0.541,�k�k��,7.3,��
2023/03/28,07:20,0.546,0.798,0.484,0.996,0.696,0.316,0.571,0.544,�k�k��,7.8,��
2023/03/28,07:30,0.546,0.797,0.483,0.996,0.696,0.316,0.570,0.540,�k�k��,6.8,��
2023/03/28,07:40,0.548,0.797,0.486,0.994,0.695,0.317,0.570,0.540,�k�k��,7.8,��
2023/03/28,07:50,0.545,0.799,0.483,0.996,0.697,0.317,0.570,0.541,�k�k��,6.4,��
2023/03/28,08:00,0.546,0.797,0.485,0.994,0.694,0.317,0.570,0.541,�k�k��,8.1,��
2023/03/28,08:10,0.546,0.799,0.486,0.997,0.697,0.316,0.569,0.541,�k�k��,7.5,��
2023/03/28,08:20,0.547,0.798,0.485,0.996,0.696,0.316,0.570,0.540,�k�k��,7.7,��
2023/03/28,08:30,0.548,0.795,0.485,0.996,0.697,0.316,0.569,0.542,�k�k��,7.9,��
2023/03/28,08:40,0.546,0.797,0.485,0.997,0.696,0.317,0.569,0.543,�k�k��,6.0,��
2023/03/28,08:50,0.546,0.799,0.483,0.996,0.698,0.316,0.569,0.541,�k�k��,7.4,��
2023/03/28,09:00,0.546,0.798,0.485,1.000,0.696,0.316,0.569,0.541,�k�k��,6.7,��
2023/03/28,09:10,0.546,0.798,0.486,0.995,0.697,0.317,0.570,0.542,�k�k��,5.9,��
2023/03/28,09:20,0.547,0.798,0.484,1.000,0.698,0.316,0.568,0.541,�k�k��,5.7,�L
2023/03/28,09:30,0.547,0.800,0.485,0.997,0.697,0.316,0.568,0.543,�k�k��,5.8,��
2023/03/28,09:40,0.548,0.798,0.484,0.998,0.697,0.316,0.568,0.540,�k�k��,6.0,��
2023/03/28,09:50,0.549,0.799,0.485,0.999,0.699,0.316,0.570,0.542,�k�k��,6.0,�L
2023/03/28,10:00,0.548,0.800,0.486,0.998,0.698,0.317,0.568,0.543,�k�k��,6.6,��
2023/03/28,10:10,0.548,0.797,0.485,0.998,0.697,0.316,0.568,0.543,�k��,6.2,��
2023/03/28,10:20,0.550,0.799,0.484,0.998,0.698,0.318,0.570,0.542,�k�k��,5.0,��
2023/03/28,10:30,0.550,0.799,0.487,0.997,0.697,0.318,0.569,0.544,�k�k��,4.9,��
2023/03/28,10:40,0.551,0.800,0.487,0.997,0.699,0.315,0.568,0.543,�k�k��,5.6,��
2023/03/28,10:50,0.549,0.799,0.486,0.998,0.698,0.317,0.568,0.542,�k,5.7,��
2023/03/28,11:00,0.549,0.798,0.487,0.998,0.700,0.318,0.568,0.543,�k�k��,6.8,��
2023/03/28,11:10,0.549,0.799,0.486,0.998,0.699,0.317,0.570,0.543,�k�k��,9.0,��
2023/03/28,11:20,0.548,0.797,0.487,0.998,0.697,0.317,0.570,0.542,�k,8.1,��
2023/03/28,11:30,0.547,0.796,0.486,1.000,0.695,0.316,0.569,0.542,�k,7.2,��
2023/03/28,11:40,0.547,0.795,0.485,1.000,0.697,0.317,0.569,0.540,�k,7.2,��
2023/03/28,11:50,0.546,0.798,0.486,0.999,0.698,0.316,0.570,0.541,�k,8.9,��
2023/03/28,12:00,0.547,0.799,0.486,1.000,0.695,0.315,0.570,0.539,�k,7.1,��
2023/03/28,12:10,0.548,0.798,0.484,0.998,0.694,0.316,0.570,0.540,�k,7.6,��
2023/03/28,12:20,0.548,0.799,0.485,1.000,0.697,0.318,0.570,0.539,�k,7.3,��
2023/03/28,12:30,0.549,0.798,0.485,0.998,0.696,0.316,0.569,0.540,�k,8.8,��
2023/03/28,12:40,0.549,0.797,0.485,1.000,0.697,0.318,0.570,0.540,�k,7.7,��
2023/03/28,12:50,0.547,0.800,0.485,0.998,0.699,0.318,0.571,0.540,�k,8.8,��
2023/03/28,13:00,0.550,0.799,0.484,0.999,0.698,0.318,0.570,0.541,�k,7.9,��
2023/03/28,13:10,0.548,0.796,0.483,1.001,0.698,0.318,0.570,0.541,�k,8.2,��
2023/03/28,13:20,0.548,0.800,0.483,1.000,0.699,0.318,0.569,0.542,�k�k��,6.9,��
2023/03/28,13:30,0.550,0.800,0.483,1.001,0.698,0.319,0.570,0.541,�k�k��,7.3,��
2023/03/28,13:40,0.549,0.798,0.486,1.001,0.699,0.319,0.570,0.540,�k�k��,7.9,��
2023/03/28,13:50,0.549,0.799,0.487,1.001,0.696,0.316,0.570,0.542,�k�k��,7.2,��
2023/03/28,14:00,0.549,0.799,0.485,1.001,0.697,0.318,0.569,0.542,�k,7.1,��
2023/03/28,14:10,0.551,0.799,0.486,1.002,0.700,0.319,0.570,0.542,�k�k��,8.1,��
2023/03/28,14:20,0.549,0.799,0.487,1.002,0.699,0.319,0.570,0.541,�k,8.4,��
2023/03/28,14:30,0.549,0.800,0.485,1.003,0.700,0.319,0.570,0.541,�k,7.8,��
2023/03/28,14:40,0.550,0.799,0.486,1.002,0.699,0.319,0.570,0.543,�k�k��,7.0,��
2023/03/28,14:50,0.550,0.800,0.487,1.000,0.699,0.318,0.569,0.543,�k�k��,6.1,��
2023/03/28,15:00,0.549,0.802,0.486,1.000,0.699,0.319,0.568,0.543,�k�k��,5.8,��
2023/03/28,15:10,0.549,0.802,0.486,1.002,0.699,0.319,0.570,0.541,�k�k��,6.8,��
2023/03/28,15:20,0.549,0.801,0.486,1.000,0.699,0.318,0.568,0.542,�k�k��,6.5,��
2023/03/28,15:30,0.548,0.800,0.487,1.003,0.699,0.319,0.569,0.541,�k�k��,6.1,��
2023/03/28,15:40,0.549,0.804,0.487,1.002,0.698,0.319,0.570,0.542,�k�k��,5.9,��
2023/03/28,15:50,0.549,0.804,0.489,1.001,0.698,0.317,0.569,0.543,�k,5.7,��
2023/03/28,16:00,0.548,0.802,0.489,1.002,0.698,0.318,0.570,0.543,�k,5.9,��
2023/03/28,16:10,0.549,0.803,0.486,1.002,0.698,0.318,0.571,0.542,�k,5.5,��
2023/03/28,16:20,0.550,0.801,0.489,1.002,0.698,0.318,0.569,0.543,�k,5.4,��
2023/03/28,16:30,0.549,0.802,0.488,1.001,0.700,0.318,0.570,0.543,�k,5.5,��
2023/03/28,16:40,0.551,0.800,0.487,0.999,0.698,0.320,0.569,0.543,�k,5.6,��
2023/03/28,16:50,0.552,0.800,0.488,1.002,0.702,0.319,0.569,0.544,�k,5.6,��
2023/03/28,17:00,0.551,0.802,0.487,1.002,0.700,0.319,0.570,0.543,�k,4.9,��
2023/03/28,17:10,0.549,0.802,0.489,1.000,0.701,0.318,0.570,0.543,�k,5.3,��
2023/03/28,17:20,0.552,0.803,0.487,1.004,0.701,0.318,0.570,0.544,�k,4.7,��
2023/03/28,17:30,0.551,0.804,0.487,1.002,0.702,0.319,0.570,0.544,�k�k��,4.4,��
2023/03/28,17:40,0.551,0.805,0.488,1.002,0.703,0.318,0.569,0.544,�k�k��,4.9,��
2023/03/28,17:50,0.551,0.805,0.486,1.002,0.703,0.318,0.568,0.544,�k�k��,4.5,��
2023/03/28,18:00,0.552,0.806,0.488,1.002,0.703,0.318,0.570,0.544,�k�k��,4.9,��
2023/03/28,18:10,0.550,0.805,0.488,1.002,0.703,0.317,0.569,0.544,�k�k��,5.2,��
2023/03/28,18:20,0.550,0.805,0.486,1.002,0.700,0.317,0.571,0.545,�k�k��,4.9,��
2023/03/28,18:30,0.549,0.804,0.487,1.003,0.702,0.317,0.570,0.543,�k�k��,5.6,��
2023/03/28,18:40,0.549,0.804,0.485,1.001,0.701,0.317,0.570,0.544,�k�k��,6.3,��
2023/03/28,18:50,0.550,0.805,0.487,1.003,0.703,0.320,0.571,0.544,�k�k��,5.7,��
2023/03/28,19:00,0.551,0.804,0.487,1.002,0.702,0.319,0.571,0.544,�k��,6.2,��
2023/03/28,19:10,0.551,0.803,0.488,1.002,0.701,0.318,0.571,0.544,�k��,6.0,��
2023/03/28,19:20,0.550,0.806,0.487,1.001,0.702,0.318,0.572,0.544,�k��,5.8,��
2023/03/28,19:30,0.551,0.804,0.486,1.003,0.702,0.318,0.571,0.542,�k��,5.1,��
2023/03/28,19:40,0.550,0.805,0.488,1.002,0.702,0.319,0.572,0.543,�k��,6.8,��
2023/03/28,19:50,0.550,0.805,0.487,1.002,0.700,0.318,0.572,0.543,�k��,6.8,��
2023/03/28,20:00,0.549,0.803,0.486,1.003,0.702,0.318,0.572,0.544,�k��,6.3,��
2023/03/28,20:10,0.551,0.804,0.486,1.001,0.702,0.318,0.571,0.545,�k��,6.0,��
2023/03/28,20:20,0.550,0.803,0.487,1.001,0.703,0.317,0.571,0.543,�k��,6.6,��
2023/03/28,20:30,0.549,0.804,0.486,1.002,0.700,0.317,0.571,0.543,�k��,6.3,��
2023/03/28,20:40,0.550,0.803,0.487,1.003,0.702,0.317,0.571,0.544,�k��,6.2,��
2023/03/28,20:50,0.550,0.801,0.486,1.002,0.701,0.317,0.572,0.542,�k��,6.1,��
2023/03/28,21:00,0.550,0.803,0.486,1.002,0.701,0.319,0.571,0.543,�k��,6.9,��
2023/03/28,21:10,0.550,0.803,0.486,1.001,0.703,0.318,0.572,0.543,�k��,6.6,��
2023/03/28,21:20,0.551,0.805,0.485,1.003,0.700,0.316,0.572,0.544,�k��,7.1,��
2023/03/28,21:30,0.549,0.804,0.486,1.004,0.703,0.318,0.573,0.544,�k��,6.8,��
2023/03/28,21:40,0.550,0.804,0.487,1.003,0.701,0.317,0.570,0.545,�k��,6.8,��
2023/03/28,21:50,0.549,0.802,0.488,1.001,0.701,0.318,0.572,0.543,�k��,6.5,��
2023/03/28,22:00,0.548,0.803,0.486,1.004,0.703,0.317,0.572,0.545,�k��,6.5,��
2023/03/28,22:10,0.549,0.803,0.487,1.004,0.701,0.317,0.573,0.543,�k��,6.5,��
2023/03/28,22:20,0.550,0.803,0.486,1.001,0.702,0.318,0.572,0.544,�k��,7.4,��
2023/03/28,22:30,0.549,0.802,0.485,1.004,0.701,0.318,0.572,0.543,�k��,7.0,��
2023/03/28,22:40,0.550,0.803,0.486,1.004,0.703,0.318,0.573,0.543,�k��,7.2,��
2023/03/28,22:50,0.550,0.802,0.486,1.003,0.701,0.317,0.572,0.544,�k��,7.2,��
2023/03/28,23:00,0.549,0.804,0.487,1.003,0.702,0.318,0.572,0.545,�k��,7.6,��
2023/03/28,23:10,0.549,0.804,0.486,1.002,0.702,0.319,0.572,0.544,�k��,7.2,��
2023/03/28,23:20,0.550,0.803,0.486,1.003,0.701,0.318,0.572,0.543,�k��,7.5,��
2023/03/28,23:30,0.549,0.802,0.486,1.004,0.701,0.318,0.572,0.544,�k��,7.6,��
2023/03/28,23:40,0.550,0.804,0.485,1.004,0.700,0.319,0.573,0.544,�k��,7.5,��
2023/03/28,23:50,0.550,0.803,0.487,1.003,0.701,0.317,0.573,0.545,�k��,7.4,��
